INMARSAT 3-F3

Last updated on Tue Sep 22 2026 00:03:10 GMT+0000 (Coordinated Universal Time)

1 24674U 96070A 26264.29832382 -.00000285 00000+0 00000+0 0 9996 2 24674 10.5226 48.7002 0006164 157.6672 207.8069 0.99990205108872
UTC large
Height (km)
Speed (km/s)
/
Latitude / Longitude
Inclination (degrees)
Orbital Period (minutes)
Azimuth
Elevation
Range (km)
Doppler Factor

Next 0 passes for location: London (51.5072 / 0.1276)

No passes found over London.
INMARSAT 3-F3